Regional Weather Roundup
Issued by NWS

Home | Current Version | Previous Version | Graphics & Text | Print | Product List | Glossary On
Versions: 1 2 3 4 5 6 7 8 9 10 11 12 13 14 15 16 17 18 19 20 21 22 23 24 25 26 27 28 29 30 31 32 33 34 35 36 37 38 39 40 41 42 43 44 45 46 47 48 49 50
000
ASUS43 KMKX 182321
RWRWI

WISCONSIN REGIONAL WEATHER ROUNDUP
NATIONAL WEATHER SERVICE MILWAUKEE/SULLIVAN WI
600 PM CDT SAT APR 18 2015

NOTE: "FAIR" INDICATES FEW OR NO CLOUDS BELOW 12,000 FEET WITH NO
SIGNIFICANT WEATHER AND/OR OBSTRUCTIONS TO VISIBILITY.

WIZ001-002-006>008-014>016-023>028-190000-
NORTHWEST WISCONSIN

CITY           SKY/WX    TMP DP  RH WIND       PRES   REMARKS
SUPERIOR ARPT  SUNNY     39  33  78 NE20G28   30.11F WCI  30
ASHLAND        SUNNY     45  34  65 N13       30.12F
HAYWARD        SUNNY     61  34  36 NE16      30.03S
SIREN          PTSUNNY   69  29  22 SE7       29.98F
CUMBERLAND     CLOUDY    63  32  31 SE12      30.01S
RICE LAKE      CLOUDY    65  31  28 E12       30.02F
CHETEK         CLOUDY    64  33  32 SE12      30.02S
LADYSMITH      MOSUNNY   65  28  25 SE12      30.05S
EAU CLAIRE     CLOUDY    67  29  24 E13       30.00S
MENOMONIE      CLOUDY    68  32  26 E18       29.99S
NEW RICHMOND   CLOUDY    66  32  27 E14G24    29.97F
OSCEOLA        CLOUDY    68  34  29 E13       29.99F
$$

WIZ003>005-009-010-017-018-190000-
NORTH CENTRAL WISCONSIN

CITY           SKY/WX    TMP DP  RH WIND       PRES   REMARKS
MANITOWISH WTR SUNNY     62  24  23 SE9       30.08F
ARBOR VITAE    HAZE      63  19  18 SE9G16    30.08F VSB 1/4
WOODRUFF       HAZE      63  19  18 SE9G16    30.08F VSB 1/4
RHINELANDER    SUNNY     61  20  20 E17       30.10F
EAGLE RIVER    SUNNY     61  14  16 SE9       30.10S
LAND O LAKES   SUNNY     62  11  13 SE9       30.11S
PHILLIPS       PTSUNNY   63  29  27 E7        30.05S
TOMAHAWK       MOSUNNY   60  24  25 CALM      30.09S
MEDFORD        PTSUNNY   58  20  23 E8        30.07F
MERRILL        MOSUNNY   60  17  18 SE13      30.09S
$$

WIZ029-030-035-036-043>047-190000-
CENTRAL WISCONSIN

CITY           SKY/WX    TMP DP  RH WIND       PRES   REMARKS
WAUSAU         MOSUNNY   59  17  19 E16G22    30.08S
MOSINEE        SUNNY     59  19  21 E14G20    30.10
MARSHFIELD     MOSUNNY   61  29  29 E15G23    30.06F
STEVENS POINT  MOSUNNY   57  24  27 E14       30.09F
WAUPACA        SUNNY     61  24  23 NE6G16    30.10F
WAUTOMA        SUNNY     62  22  21 E12       30.08F
WISC RAPIDS    MOSUNNY   62  20  19 SE17      30.07F
CAMP DOUGLAS   PTSUNNY   63  27  25 E16       30.02F
$$

WIZ011>013-019>022-031-037>040-048>050-190000-
NORTHEAST WISCONSIN

CITY           SKY/WX    TMP DP  RH WIND       PRES   REMARKS
ANTIGO         SUNNY     56  15  20 E16       30.11F
SHAWANO        MOSUNNY   59  23  24 E13       30.12F
OCONTO         MOSUNNY   57  23  27 NE8       30.12F
STURGEON BAY   MOSUNNY   55  21  26 NE13      30.15F
GREEN BAY      MOSUNNY   54  28  36 NE17      30.12F
MANITOWOC      SUNNY     51  25  36 NE15G24   30.11F
APPLETON       NOT AVBL
CLINTONVILLE   MOSUNNY   59  16  18 E12       30.11F
OSHKOSH        SUNNY     60  27  28 NE13      30.08F
$$

WIZ032>034-041-042-053>061-190000-
SOUTHWEST WISCONSIN

CITY           SKY/WX    TMP DP  RH WIND       PRES   REMARKS
LA CROSSE      PTSUNNY   71  38  29 E14       29.95F
SPARTA         MOSUNNY   66  28  23 E17       30.01F
VIROQUA        PTSUNNY   67  36  31 E17       29.98F
BOSCOBEL       MOSUNNY   71  36  27 NE13G20   29.96F
PRAIRIE DU CHI PTSUNNY   71  34  26 E18G26    29.93F
PLATTEVILLE    PTSUNNY   71  35  27 E18G25    29.96F
$$

WIZ056-057-062-063-064-067-068-190000-
SOUTH CENTRAL WISCONSIN

CITY           SKY/WX    TMP DP  RH WIND       PRES   REMARKS
REEDSBURG      MOSUNNY   64  32  29 NE14G21   30.02F
BARABOO/DELLS  SUNNY     64  28  25 E14       30.03F
LONE ROCK      MOSUNNY   67  33  28 E15       29.99F
MINERAL POINT  MOSUNNY   68  32  26 E12G18    29.98F
MADISON        PTSUNNY   67  30  25 E16       30.02F
MIDDLETON      SUNNY     68  25  20 E14       30.02F
WATERTOWN      SUNNY     64  34  33 E10G17    30.04S
MONROE         MOSUNNY   68  32  26 E13G22    29.99F
JANESVILLE     SUNNY     72  28  20 E16G23    30.01
$$

WIZ051-052-058>065-066-070>072-190000-
SOUTHEAST WISCONSIN

CITY           SKY/WX    TMP DP  RH WIND       PRES   REMARKS
MILWAUKEE      MOSUNNY   45  33  63 N21G30    30.09S
WAUKESHA       MOSUNNY   57  30  35 NE14      30.07S
MILWAUKEE/TIMM SUNNY     52  28  40 NE16      30.08F
RACINE         SUNNY     45  34  65 N17G28    30.08F
BURLINGTON     MOSUNNY   56  32  39 NE12G17   30.05S
KENOSHA        MOSUNNY   51  33  50 N16       30.06S
FOND DU LAC    SUNNY     62  28  27 NE12      30.08S
SHEBOYGAN      SUNNY     51  31  46 NE20G30   30.10F
WEST BEND      SUNNY     54  27  35 NE16      30.08S
JUNEAU         SUNNY     62  32  32 NE8       30.07S
$$

LSZ147-162-190000-
LAKE SUPERIOR

STATION/POSITION TIME  TEMP    WIND        PRES    WAVE
                       AIR SEA DIR/SP/G            HT/PER
                 (UTC) (F)     (DEG/KT/KT) (MB)    (FT/S)
DEVILS ISLAND    2300   37      50/ 21/ 23 1021.0F
PORT WING        2200   39      40/ 23/ 27 1020.3
SAXON HARBOR     2240   40     360/ 11/ 14 1019.0F
$$

LMZ867-665-643>646-190000-
LAKE MICHIGAN

STATION/POSITION TIME  TEMP    WIND        PRES    WAVE
                       AIR SEA DIR/SP/G            HT/PER
                 (UTC) (F)     (DEG/KT/KT) (MB)    (FT/S)
CHAMBERS ISLAND  2200   44      10/  7/ 10 1021.7F
NORTHPORT PIER   2200   52      70/  7/  9 1021.7F
SISTER BAY       2232   58      10/ 13/ 19   N/A
KEWAUNEE LAKESHO 2300   46      30/ 13/ 19 1019.4F
SHEBOYGAN LAKESH 2300   43      10/ 18/ 20 1020.2S
PORT WASHINGTON  2226   51      30/ 16/ 25 1019.3F
MILWAUKEE LAKESH 2300   43      10/ 21/ 28   N/A
KENOSHA   LAKESH 2300   44      10/ 23/ 28 1017.6F
$$

TC  - TEMPERATURE IN CELSIUS
VSB - VISIBILITY IN STATUTE MILES
WCI - WIND CHILL INDEX
HX  - HEAT INDEX



USA.gov is the U.S. government's official web portal to all federal, state and local government web resources and services.